Cut Bank, MT

10:44 AM MST on February 08, 2016 (GMT -0700)
Cut Bank Municipal

Weather History for KCTB - October, 2012

Change the Weather History Date:

Thursday, October 25, 2012

  Actual Average Record
Temperature  
Mean Temperature 13 °F 39 °F  
Max Temperature 23 °F 51 °F 75 °F (1924)
Min Temperature 2 °F 27 °F -12 °F (1919)
Degree Days  
Heating Degree Days 52 26  
Month to date heating degree days 653 525  
Since 1 July heating degree days 976 1062  
Cooling Degree Days 0 0  
Month to date cooling degree days 0 0  
Year to date cooling degree days 210 161  
Moisture  
Dew Point 15 °F    
Average Humidity 80    
Maximum Humidity 92    
Minimum Humidity 68    
Precipitation  
Precipitation T in 0.01 in 0.68 in (1946)
Month to date precipitation 0.65 0.38  
Year to date precipitation 7.76 10.26  
Snow  
Snow 0.00 in - - ()
Snow Depth 2.00 in    
Sea Level Pressure  
Sea Level Pressure 30.41 in    
Wind  
Wind Speed 5 mph (NNW)    
Max Wind Speed 10 mph    
Max Gust Speed 12 mph    
Visibility 7 miles    
Events Snow    
T = Trace of Precipitation, MM = Missing Value Source: NWS Daily Summary

Daily Weather History Graph

Daily Weather History Graph

Search for Another Location

Airport or City:

Trip Planner

Search our weather history database for the weather conditions in past years. The results will help you decide how hot, cold, wet, or windy it might be!

Date:

Astronomy

Oct. 25, 2012 Rise Set
Actual Time 8:05 AM MDT 6:20 PM MDT
Civil Twilight 7:33 AM MDT 6:52 PM MDT
Nautical Twilight 6:56 AM MDT 7:29 PM MDT
Astronomical Twilight 6:20 AM MDT 8:05 PM MDT
Moon 4:23 PM MDT (10/25) 3:48 AM MDT (10/25)
Length of Visible Light 11h 19m
Length of Day
10h 14m
Waxing Gibbous, 85% of the Moon is Illuminated
Oct 25
Waxing Gibbous
Oct 29
Full
Nov 6
Last Quarter
Nov 13
New
Nov 20
First Quarter

Hourly Weather History & Observations

Time (MDT) Temp. Windchill Dew Point Humidity Pressure Visibility Wind Dir Wind Speed Gust Speed Precip Events Conditions
12:56 AM 19.0 °F 10.0 °F 14.0 °F 81% 30.40 in 10.0 mi NW 6.9 mph - N/A   Overcast
1:56 AM 19.0 °F 11.1 °F 14.0 °F 81% 30.40 in 10.0 mi NNW 5.8 mph - N/A   Overcast
2:56 AM 19.9 °F 12.1 °F 15.1 °F 81% 30.41 in 10.0 mi NNW 5.8 mph - N/A   Overcast
3:56 AM 19.9 °F 11.1 °F 15.1 °F 81% 30.41 in 10.0 mi North 6.9 mph - N/A   Overcast
4:56 AM 19.9 °F 13.4 °F 15.1 °F 81% 30.41 in 10.0 mi NNW 4.6 mph - N/A   Overcast
5:56 AM 19.4 °F 14.3 °F 15.8 °F 86% 30.27 in 10.0 mi NW 3.5 mph - N/A   Overcast
6:56 AM 19.4 °F 11.5 °F 15.8 °F 86% 30.29 in 9.0 mi NNW 5.8 mph - N/A   Overcast
7:56 AM 19.9 °F 14.9 °F 16.0 °F 85% 30.46 in 8.0 mi North 3.5 mph - N/A   Overcast
8:48 AM 19.4 °F 12.8 °F 15.8 °F 86% 30.32 in 1.8 mi NW 4.6 mph - 0.00 in Snow Light Snow
8:56 AM 19.9 °F 12.1 °F 17.1 °F 89% 30.48 in 1.2 mi NW 5.8 mph - 0.00 in Snow Light Snow
9:19 AM 19.4 °F 10.4 °F 17.6 °F 93% 30.32 in 0.8 mi NNW 6.9 mph - 0.00 in Snow Light Snow
9:35 AM 19.4 °F 11.5 °F 17.6 °F 93% 30.32 in 1.5 mi NNW 5.8 mph - 0.00 in Snow Light Snow
9:43 AM 19.4 °F 9.5 °F 17.6 °F 93% 30.33 in 2.5 mi NNW 8.1 mph - 0.00 in Snow Light Snow
9:56 AM 19.9 °F 8.6 °F 17.1 °F 89% 30.49 in 3.0 mi NNW 10.4 mph - 0.00 in Snow Light Snow
10:56 AM 19.9 °F 10.1 °F 16.0 °F 85% 30.50 in 2.5 mi NNW 8.1 mph - 0.00 in Snow Light Snow
11:11 AM 21.2 °F 10.9 °F 17.6 °F 86% 30.35 in 2.5 mi NNW 9.2 mph - 0.00 in Snow Light Snow
11:26 AM 21.2 °F 10.9 °F 17.6 °F 86% 30.35 in 1.8 mi NNW 9.2 mph - 0.00 in Snow Light Snow
11:52 AM 21.2 °F 10.9 °F 17.6 °F 86% 30.35 in 1.2 mi NNW 9.2 mph - 0.00 in Snow Light Snow
11:56 AM 21.9 °F 11.7 °F 18.0 °F 85% 30.51 in 1.2 mi NNW 9.2 mph - 0.00 in Snow Light Snow
12:22 PM 21.2 °F 11.7 °F 17.6 °F 86% 30.35 in 2.5 mi North 8.1 mph - 0.00 in Snow Light Snow
12:31 PM 21.2 °F 11.7 °F 17.6 °F 86% 30.35 in 4.0 mi NNW 8.1 mph - 0.00 in Snow Light Snow
12:54 PM 21.2 °F 12.6 °F 17.6 °F 86% 30.35 in 6.0 mi North 6.9 mph - 0.00 in   Haze
12:56 PM 23.0 °F 14.7 °F 17.1 °F 78% 30.51 in 5.0 mi North 6.9 mph - 0.00 in   Haze
1:20 PM 23.0 °F 14.7 °F 17.6 °F 80% 30.35 in 7.0 mi NNW 6.9 mph - N/A   Overcast
1:38 PM 21.2 °F 12.6 °F 15.8 °F 80% 30.35 in 9.0 mi NNW 6.9 mph - N/A   Overcast
1:56 PM 21.2 °F 12.6 °F 15.8 °F 80% 30.35 in 9.0 mi NNW 6.9 mph - N/A   Overcast
2:20 PM 21.2 °F 13.6 °F 15.8 °F 80% 30.35 in 10.0 mi NW 5.8 mph - N/A   Overcast
2:56 PM 21.9 °F 15.7 °F 16.0 °F 78% 30.51 in 10.0 mi NNW 4.6 mph - N/A   Overcast
3:03 PM 21.2 °F 13.6 °F 15.8 °F 80% 30.35 in 10.0 mi NW 5.8 mph - N/A   Overcast
3:56 PM 21.9 °F 15.7 °F 16.0 °F 78% 30.51 in 10.0 mi NW 4.6 mph - N/A   Overcast
4:56 PM 21.9 °F 14.5 °F 15.1 °F 75% 30.52 in 10.0 mi NW 5.8 mph - N/A   Overcast
5:56 PM 21.9 °F - 12.9 °F 68% 30.53 in 10.0 mi Calm Calm - N/A   Overcast
6:48 PM 19.4 °F - 12.2 °F 74% 30.38 in 10.0 mi Calm Calm - N/A   Scattered Clouds
6:56 PM 19.4 °F - 14.0 °F 80% 30.38 in 10.0 mi Calm Calm - N/A   Partly Cloudy
7:56 PM 18.0 °F 11.1 °F 12.0 °F 78% 30.55 in 10.0 mi WSW 4.6 mph - N/A   Clear
8:56 PM 15.1 °F 7.7 °F 10.9 °F 84% 30.55 in 10.0 mi WSW 4.6 mph - N/A   Clear
9:56 PM 12.2 °F 6.1 °F 10.4 °F 92% 30.37 in 10.0 mi WSW 3.5 mph - N/A   Clear
10:56 PM 6.1 °F -2.8 °F 3.9 °F 91% 30.58 in 10.0 mi NE 4.6 mph - N/A   Clear
11:56 PM 3.0 °F -4.4 °F 1.0 °F 91% 30.58 in 10.0 mi NNE 3.5 mph - N/A   Clear